SQ3KKR-15 Weather Reports


Display with metric or nautical units.
time (UTC)temp
F
wind
direction
speed
MPH
gust
MPH
rain 1hr
in
rain 24hr
in
rain mn
in
humidity
%
barometer
mb
20210618093914 87 0.0 0.0 0.00 0.00 0.00 37 1013.5
20210618085914 85 0.0 0.0 0.00 0.00 0.00 41 1013.8
20210618083914 84 0.0 0.0 0.00 0.00 0.00 43 1013.9
20210618080914 83 0.0 0.0 0.00 0.00 0.00 44 1014.1
20210618073914 83 0.0 0.0 0.00 0.00 0.00 45 1014.3
20210618070914 80 0.0 0.0 0.00 0.00 0.00 48 1014.4
20210618063914 79 0.0 0.0 0.00 0.00 0.00 49 1014.4
20210618053914 79 0.0 0.0 0.00 0.00 0.00 47 1014.2
20210618052914 79 0.0 0.0 0.00 0.00 0.00 46 1014.2
20210618045907 85 0.0 0.0 0.00 0.00 0.00 42 1014.1
20210618044905 86 0.0 0.0 0.00 0.00 0.00 41 1014.1
20210618035905 72 0.0 0.0 0.00 0.00 0.00 58 1014.1
20210618034905 69 0.0 0.0 0.00 0.00 0.00 60 1014.1
20210618025905 67 0.0 0.0 0.00 0.00 0.00 60 1013.8
20210618022905 67 0.0 0.0 0.00 0.00 0.00 59 1013.7
20210618015905 68 0.0 0.0 0.00 0.00 0.00 59 1013.6
20210618012905 69 0.0 0.0 0.00 0.00 0.00 57 1013.6
20210618011905 69 0.0 0.0 0.00 0.00 0.00 58 1013.5
20210618004906 70 0.0 0.0 0.00 0.00 0.00 56 1013.7
20210617235904 70 0.0 0.0 0.00 0.00 0.00 53 1014.0
20210617234904 71 0.0 0.0 0.00 0.00 0.00 54 1014.1
20210617232904 71 0.0 0.0 0.00 0.00 0.00 53 1014.1
20210617225904 72 0.0 0.0 0.00 0.00 0.00 51 1014.2
20210617221904 73 0.0 0.0 0.00 0.00 0.00 50 1014.1
20210617220905 73 0.0 0.0 0.00 0.00 0.00 49 1014.0
20210617215904 73 0.0 0.0 0.00 0.00 0.00 48 1014.0
20210617204904 76 0.0 0.0 0.00 0.00 0.00 45 1013.9
20210617203904 76 0.0 0.0 0.00 0.00 0.00 44 1013.8
20210617202904 76 0.0 0.0 0.00 0.00 0.00 43 1013.7
20210617192855 80 0.0 0.0 0.00 0.00 0.00 37 1013.6
20210617185855 84 0.0 0.0 0.00 0.00 0.00 34 1013.3
20210617184856 86 0.0 0.0 0.00 0.00 0.00 33 1013.2
20210617175846 98 0.0 0.0 0.00 0.00 0.00 25 1013.1
20210617174846 98 0.0 0.0 0.00 0.00 0.00 25 1013.1
20210617173847 98 0.0 0.0 0.00 0.00 0.00 25 1013.0
20210617172846 99 0.0 0.0 0.00 0.00 0.00 24 1013.0
20210617171846 98 0.0 0.0 0.00 0.00 0.00 25 1013.0
20210617170847 98 0.0 0.0 0.00 0.00 0.00 25 1013.0
20210617165847 99 0.0 0.0 0.00 0.00 0.00 24 1012.9
20210617164846 98 0.0 0.0 0.00 0.00 0.00 25 1013.0
20210617162846 97 0.0 0.0 0.00 0.00 0.00 25 1012.9
20210617161846 96 0.0 0.0 0.00 0.00 0.00 25 1013.0
20210617154846 95 0.0 0.0 0.00 0.00 0.00 27 1013.1
20210617152846 94 0.0 0.0 0.00 0.00 0.00 27 1013.2
20210617145846 92 0.0 0.0 0.00 0.00 0.00 29 1013.3
20210617135846 92 0.0 0.0 0.00 0.00 0.00 29 1013.7
20210617134846 91 0.0 0.0 0.00 0.00 0.00 29 1013.8
20210617133846 91 0.0 0.0 0.00 0.00 0.00 30 1013.8
20210617132846 92 0.0 0.0 0.00 0.00 0.00 29 1013.8
20210617131846 91 0.0 0.0 0.00 0.00 0.00 30 1014.0
20210617130846 91 0.0 0.0 0.00 0.00 0.00 30 1014.1
20210617125846 91 0.0 0.0 0.00 0.00 0.00 29 1014.1
20210617124846 91 0.0 0.0 0.00 0.00 0.00 30 1014.1
20210617123846 91 0.0 0.0 0.00 0.00 0.00 31 1014.1
20210617122846 91 0.0 0.0 0.00 0.00 0.00 29 1014.1
20210617114846 90 0.0 0.0 0.00 0.00 0.00 32 1014.4
20210617113846 90 0.0 0.0 0.00 0.00 0.00 33 1014.5
20210617111846 89 0.0 0.0 0.00 0.00 0.00 33 1014.6
20210617110846 88 0.0 0.0 0.00 0.00 0.00 35 1014.6
20210617102846 88 0.0 0.0 0.00 0.00 0.00 35 1014.7
20210617101846 87 0.0 0.0 0.00 0.00 0.00 38 1014.8
20210617100846 86 0.0 0.0 0.00 0.00 0.00 38 1014.9
20210617095845 87 0.0 0.0 0.00 0.00 0.00 37 1015.0
20210617094845 86 0.0 0.0 0.00 0.00 0.00 40 1015.0